SHIJIAN-6 02B (SJ-6 02B)

Last updated on Thu Nov 21 2024 00:03:26 GMT+0000 (Coordinated Universal Time)

1 29506U 06046B 24325.56479327 .00003159 00000+0 26859-3 0 9997 2 29506 97.7285 349.0152 0003726 108.4587 251.7040 14.98560787984732
UTC large
Height (km)
Speed (km/s)
/
Latitude / Longitude
Inclination (degrees)
Orbital Period (minutes)
Azimuth
Elevation
Range (km)
Doppler Factor

Next 0 passes for location: London (51.5072 / 0.1276)

Sorry there are no passes over London.